Fortuna, CA

10:14 AM PST on November 22, 2019 (GMT -0800)
Rohnerville

Weather History for KFOT - October, 2019

Change the Weather History Date:

Monday, October 21, 2019

  Actual Average (WUND) Record (WUND)
Temperature  
Mean Temperature 53 °F -  
Max Temperature 62 °F - - (-1)
Min Temperature 44 °F - - (-1)
Degree Days  
Heating Degree Days 12    
Growing Degree Days 3 (Base 50)    
Moisture  
Dew Point 50 °F    
Average Humidity 91    
Maximum Humidity 100    
Minimum Humidity 68    
Precipitation  
Precipitation 0.00 in - - ()
Sea Level Pressure  
Sea Level Pressure 30.30 in    
Wind  
Wind Speed 6 mph ()    
Max Wind Speed 17 mph    
Max Gust Speed 21 mph    
Visibility 7.4 miles    
Events      
Averages and records for this station are not official NWS values.
T = Trace of Precipitation, MM = Missing Value Source: Averaged Metar Reports

Daily Weather History Graph

Daily Weather History Graph

Search for Another Location

Airport or City:

Astronomy

Oct. 21, 2019 Rise Set
Actual Time 7:33 AM PDT 6:27 PM PDT
Civil Twilight 7:06 AM PDT 6:55 PM PDT
Nautical Twilight 6:34 AM PDT 7:27 PM PDT
Astronomical Twilight 6:02 AM PDT 7:58 PM PDT
Moon No Moon Rise 2:57 PM PDT (10/21)
Length of Visible Light 11h 49m
Length of Day
10h 53m
Waning Gibbous, 47% of the Moon is Illuminated
Oct 21
Waning Gibbous
Oct 27
New
Nov 4
First Quarter
Nov 12
Full
Nov 19
Last Quarter

Hourly Weather History & Observations

Time (PDT) Temp. Windchill Dew Point Humidity Pressure Visibility Wind Dir Wind Speed Gust Speed Precip Events Conditions
12:15 AM 48.2 °F - 48.2 °F 100% 30.25 in 5.0 mi SE 6.9 mph - N/A   Clear
12:35 AM 50.0 °F - 48.2 °F 94% 30.24 in 9.0 mi SE 6.9 mph - N/A   Clear
12:55 AM 48.2 °F - 48.2 °F 100% 30.24 in 8.0 mi SE 6.9 mph - N/A   Clear
1:15 AM 48.2 °F - 48.2 °F 100% 30.25 in 5.0 mi SSE 6.9 mph - N/A   Clear
1:35 AM 48.2 °F - 48.2 °F 100% 30.25 in 5.0 mi SSE 5.8 mph - N/A   Clear
1:55 AM 48.2 °F - 48.2 °F 100% 30.25 in 4.0 mi SSE 5.8 mph - N/A   Clear
2:15 AM 48.2 °F - 48.2 °F 100% 30.25 in 0.2 mi SSE 8.1 mph - N/A   Unknown
2:35 AM 48.2 °F - 48.2 °F 100% 30.25 in 0.2 mi SE 8.1 mph - N/A   Unknown
2:55 AM 48.2 °F - 48.2 °F 100% 30.24 in 10.0 mi SE 6.9 mph - N/A   Clear
3:15 AM 48.2 °F - 48.2 °F 100% 30.25 in 9.0 mi SSE 5.8 mph - N/A   Clear
3:35 AM 46.4 °F 44.3 °F 46.4 °F 100% 30.25 in 2.5 mi SSE 4.6 mph - N/A   Clear
3:55 AM 46.4 °F 43.5 °F 46.4 °F 100% 30.25 in 3.0 mi SSE 5.8 mph - N/A   Clear
4:15 AM 48.2 °F - 46.4 °F 93% 30.25 in 9.0 mi SSE 5.8 mph - N/A   Clear
4:35 AM 46.4 °F 43.5 °F 46.4 °F 100% 30.25 in 3.0 mi SSE 5.8 mph - N/A   Clear
5:15 AM 46.4 °F 44.3 °F 46.4 °F 100% 30.27 in 1.2 mi SE 4.6 mph - N/A   Clear
5:35 AM 46.4 °F 43.5 °F 46.4 °F 100% 30.27 in 0.2 mi SSE 5.8 mph - N/A   Unknown
5:55 AM 46.4 °F 42.9 °F 46.4 °F 100% 30.27 in 0.2 mi SE 6.9 mph - N/A   Unknown
6:15 AM 46.4 °F 42.9 °F 46.4 °F 100% 30.27 in 0.2 mi SE 6.9 mph - N/A   Unknown
6:35 AM 46.4 °F 43.5 °F 46.4 °F 100% 30.27 in 10.0 mi SE 5.8 mph - N/A   Clear
6:55 AM 44.6 °F 40.7 °F 44.6 °F 100% 30.28 in 0.2 mi SE 6.9 mph - N/A   Unknown
7:15 AM 44.6 °F 40.7 °F 44.6 °F 100% 30.28 in 0.2 mi SE 6.9 mph - N/A   Unknown
7:35 AM 44.6 °F 41.4 °F 44.6 °F 100% 30.29 in 0.2 mi SSE 5.8 mph - N/A   Unknown
7:55 AM 44.6 °F 41.4 °F 44.6 °F 100% 30.30 in 0.2 mi South 5.8 mph - N/A   Unknown
8:15 AM 46.4 °F 43.5 °F 46.4 °F 100% 30.30 in 5.0 mi SSE 5.8 mph - N/A   Clear
8:35 AM 46.4 °F 44.3 °F 46.4 °F 100% 30.31 in 10.0 mi SE 4.6 mph - N/A   Clear
8:55 AM 48.2 °F - 46.4 °F 93% 30.32 in 10.0 mi SSE 3.5 mph - N/A   Clear
9:15 AM 48.2 °F - 48.2 °F 100% 30.32 in 10.0 mi SSE 3.5 mph - N/A   Clear
9:35 AM 50.0 °F - 50.0 °F 100% 30.33 in 10.0 mi SSE 3.5 mph - N/A   Clear
9:55 AM 51.8 °F - 50.0 °F 94% 30.32 in 10.0 mi Calm Calm - N/A   Clear
10:15 AM 53.6 °F - 51.8 °F 94% 30.32 in 10.0 mi Calm Calm - N/A   Clear
10:35 AM 55.4 °F - 51.8 °F 88% 30.32 in 10.0 mi NW 3.5 mph - N/A   Partly Cloudy
10:55 AM 57.2 °F - 51.8 °F 82% 30.32 in 10.0 mi Calm Calm - N/A   Scattered Clouds
11:15 AM 57.2 °F - 51.8 °F 82% 30.32 in 10.0 mi North 3.5 mph - N/A   Scattered Clouds
11:35 AM 59.0 °F - 53.6 °F 82% 30.32 in 10.0 mi NNW 4.6 mph - N/A   Clear
11:55 AM 59.0 °F - 53.6 °F 82% 30.32 in 10.0 mi WNW 8.1 mph - N/A   Partly Cloudy
12:15 PM 62.6 °F - 53.6 °F 72% 30.31 in 10.0 mi WNW 10.4 mph - N/A   Partly Cloudy
12:35 PM 59.0 °F - 53.6 °F 82% 30.31 in 9.0 mi West 11.5 mph - N/A   Scattered Clouds
12:55 PM 59.0 °F - 53.6 °F 82% 30.31 in 10.0 mi WNW 12.7 mph - N/A   Scattered Clouds
1:15 PM 60.8 °F - 53.6 °F 77% 30.31 in 10.0 mi WNW 10.4 mph - N/A   Scattered Clouds
1:35 PM 62.6 °F - 53.6 °F 72% 30.31 in 10.0 mi WNW 10.4 mph - N/A   Partly Cloudy
1:55 PM 62.6 °F - 53.6 °F 72% 30.30 in 10.0 mi WNW 12.7 mph - N/A   Clear
2:10 PM 62.6 °F - 53.6 °F 72% 30.30 in 10.0 mi WNW 13.8 mph - N/A   Clear
2:35 PM 62.6 °F - 53.6 °F 72% 30.29 in 10.0 mi West 12.7 mph - N/A   Partly Cloudy
2:55 PM 62.6 °F - 51.8 °F 68% 30.29 in 10.0 mi West 12.7 mph - N/A   Clear
3:15 PM 62.6 °F - 53.6 °F 72% 30.29 in 10.0 mi West 13.8 mph - N/A   Partly Cloudy
3:35 PM 62.6 °F - 53.6 °F 72% 30.29 in 10.0 mi West 12.7 mph - N/A   Partly Cloudy
3:55 PM 60.8 °F - 53.6 °F 77% 30.29 in 10.0 mi West 16.1 mph 20.7 mph N/A   Partly Cloudy
4:15 PM 60.8 °F - 53.6 °F 77% 30.30 in 10.0 mi West 17.3 mph - N/A   Clear
4:35 PM 59.0 °F - 53.6 °F 82% 30.30 in 10.0 mi West 15.0 mph - N/A   Clear
4:55 PM 59.0 °F - 53.6 °F 82% 30.31 in 10.0 mi West 13.8 mph - N/A   Clear
5:15 PM 57.2 °F - 53.6 °F 88% 30.31 in 10.0 mi West 12.7 mph - N/A   Clear
5:35 PM 57.2 °F - 53.6 °F 88% 30.32 in 10.0 mi West 11.5 mph - N/A   Clear
5:55 PM 57.2 °F - 53.6 °F 88% 30.32 in 10.0 mi West 9.2 mph - N/A   Clear
6:15 PM 55.4 °F - 51.8 °F 88% 30.32 in 10.0 mi West 10.4 mph - N/A   Clear
6:35 PM 55.4 °F - 51.8 °F 88% 30.32 in 10.0 mi West 8.1 mph - N/A   Clear
6:55 PM 53.6 °F - 50.0 °F 88% 30.32 in 10.0 mi West 6.9 mph - N/A   Clear
7:15 PM 53.6 °F - 50.0 °F 88% 30.33 in 10.0 mi NW 5.8 mph - N/A   Clear
7:35 PM 53.6 °F - 50.0 °F 88% 30.34 in 10.0 mi NW 4.6 mph - N/A   Clear
7:55 PM 53.6 °F - 50.0 °F 88% 30.34 in 10.0 mi West 6.9 mph - N/A   Clear
8:15 PM 53.6 °F - 50.0 °F 88% 30.34 in 10.0 mi West 4.6 mph - N/A   Clear
8:35 PM 51.8 °F - 50.0 °F 94% 30.34 in 9.0 mi NW 4.6 mph - N/A   Clear
8:55 PM 50.0 °F - 50.0 °F 100% 30.34 in 7.0 mi Calm Calm - N/A   Clear
9:15 PM 50.0 °F - 50.0 °F 100% 30.35 in 7.0 mi Calm Calm - N/A   Clear
9:35 PM 50.0 °F - 50.0 °F 100% 30.35 in 8.0 mi SE 3.5 mph - N/A   Clear
9:55 PM 50.0 °F - 50.0 °F 100% 30.35 in 7.0 mi Calm Calm - N/A   Clear
10:15 PM 51.8 °F - 50.0 °F 94% 30.36 in 8.0 mi Calm Calm - N/A   Scattered Clouds
10:35 PM 50.0 °F - 50.0 °F 100% 30.36 in 7.0 mi SE 4.6 mph - N/A   Scattered Clouds
10:55 PM 50.0 °F - 50.0 °F 100% 30.36 in 8.0 mi SE 5.8 mph - N/A   Partly Cloudy
11:15 PM 50.0 °F - 48.2 °F 94% 30.36 in 9.0 mi SE 3.5 mph - N/A   Partly Cloudy
11:35 PM 50.0 °F - 50.0 °F 100% 30.37 in 2.5 mi Calm Calm - N/A   Scattered Clouds
11:55 PM 50.0 °F - 48.2 °F 94% 30.36 in 0.8 mi SE 3.5 mph - N/A   Overcast